QPF
0.00 0.00 0.00 0.00 0.00 0.01 0.01 0.00 0.00 0.00 0.00 0.00 0.00 0.00 0.00 0.00 0.01 0.02 0.00 0.00 0.00 0.00 0.00 0.01 0.01 0.01 0.00 0.01 0.00 0.00 0.01 0.00 0.00 0.00 0.00 0.00 0.00 0.00 0.00 0.00 0.01 0.01 0.01 0.01 0.01 0.01 0.01 0.01 0.01
0.00 0.00 0.00 0.00 0.01 0.01 0.00 0.00 0.00 0.00 0.00 0.00 0.00 0.00 0.00 0.00 0.00 0.00 0.00 0.00 0.00 0.00 0.00 0.00 0.01 0.00 0.00 0.00 0.00 0.00 0.00 0.01 0.01 0.00 0.00 0.00 0.00 0.01 0.01 0.01 0.01 0.01 0.01 0.01 0.01 0.01 0.00 0.00 0.01
0.00 0.00 0.00 0.00 0.00 0.00 0.00 0.00 0.00 0.00 0.00 0.00 0.00 0.00 0.00 0.00 0.00 0.00 0.00 0.00 0.00 0.00 0.00 0.00 0.01 0.00 0.00 0.00 0.00 0.00 0.00 0.00 0.01 0.00 0.00 0.00 0.01 0.01 0.01 0.02 0.01 0.01 0.01 0.01 0.01 0.01 0.01 0.01 0.01
0.00 0.00 0.00 0.00 0.00 0.00 0.00 0.00 0.00 0.00 0.00 0.00 0.00 0.00 0.00 0.00 0.00 0.00 0.00 0.00 0.00 0.00 0.00 0.00 0.01 0.00 0.00 0.00 0.00 0.00 0.01 0.01 0.01 0.01 0.01 0.01 0.01 0.01 0.01 0.01 0.01 0.01 0.01 0.01 0.01 0.02 0.02 0.02 0.02
0.00 0.00 0.00 0.00 0.00 0.00 0.00 0.00 0.00 0.00 0.00 0.00 0.00 0.00 0.01 0.01 0.00 0.00 0.00 0.00 0.00 0.00 0.00 0.01 0.01 0.01 0.01 0.01 0.00 0.01 0.01 0.01 0.01 0.01 0.01 0.01 0.01 0.01 0.01 0.01 0.01 0.01 0.01 0.01 0.01 0.02 0.02 0.02 0.02
0.00 0.00 0.00 0.00 0.00 0.00 0.00 0.00 0.00 0.00 0.00 0.00 0.00 0.00 0.01 0.00 0.00 0.01 0.00 0.00 0.00 0.00 0.00 0.01 0.01 0.01 0.01 0.01 0.01 0.01 0.01 0.01 0.01 0.01 0.01 0.01 0.01 0.01 0.02 0.02 0.01 0.01 0.01 0.01 0.02 0.02 0.02 0.02 0.02
0.00 0.00 0.00 0.00 0.00 0.00 0.00 0.00 0.00 0.00 0.00 0.00 0.00 0.00 0.00 0.00 0.00 0.01 0.00 0.00 0.00 0.00 0.01 0.01 0.02 0.02 0.01 0.01 0.01 0.01 0.01 0.01 0.01 0.01 0.01 0.01 0.01 0.01 0.02 0.02 0.01 0.01 0.01 0.02 0.02 0.02 0.02 0.02 0.03
0.00 0.00 0.00 0.00 0.00 0.00 0.00 0.00 0.00 0.00 0.00 0.00 0.00 0.00 0.00 0.00 0.00 0.01 0.01 0.00 0.00 0.01 0.02 0.01 0.02 0.03 0.02 0.01 0.01 0.01 0.01 0.01 0.01 0.01 0.01 0.01 0.01 0.01 0.01 0.01 0.01 0.01 0.01 0.02 0.02 0.02 0.01 0.03 0.03
0.00 0.00 0.00 0.00 0.00 0.00 0.00 0.00 0.00 0.00 0.00 0.00 0.00 0.00 0.00 0.00 0.00 0.01 0.01 0.02 0.03 0.03 0.04 0.03 0.03 0.03 0.02 0.01 0.01 0.01 0.02 0.01 0.02 0.02 0.01 0.01 0.02 0.01 0.01 0.01 0.02 0.02 0.01 0.02 0.03 0.02 0.02 0.02 0.03
0.00 0.00 0.00 0.00 0.00 0.00 0.00 0.00 0.00 0.00 0.00 0.00 0.00 0.00 0.00 0.00 0.01 0.01 0.02 0.03 0.04 0.05 0.06 0.06 0.04 0.04 0.04 0.04 0.04 0.04 0.03 0.02 0.03 0.03 0.02 0.03 0.03 0.03 0.02 0.02 0.03 0.04 0.03 0.03 0.04 0.04 0.03 0.02 0.03
0.00 0.00 0.00 0.00 0.00 0.00 0.00 0.00 0.00 0.00 0.00 0.00 0.00 0.00 0.00 0.00 0.00 0.01 0.02 0.04 0.06 0.10 0.10 0.10 0.08 0.05 0.04 0.06 0.07 0.08 0.07 0.04 0.04 0.04 0.03 0.04 0.03 0.03 0.03 0.04 0.07 0.07 0.05 0.06 0.04 0.03 0.03 0.02 0.04
0.00 0.00 0.00 0.00 0.00 0.00 0.00 0.00 0.00 0.00 0.00 0.00 0.00 0.00 0.00 0.00 0.00 0.01 0.03 0.07 0.10 0.15 0.17 0.15 0.12 0.08 0.05 0.05 0.06 0.08 0.11 0.05 0.03 0.03 0.03 0.04 0.06 0.06 0.06 0.07 0.08 0.07 0.07 0.06 0.04 0.05 0.04 0.03 0.02
0.00 0.00 0.00 0.00 0.00 0.00 0.00 0.00 0.00 0.00 0.00 0.00 0.00 0.00 0.00 0.00 0.01 0.01 0.03 0.12 0.15 0.18 0.23 0.20 0.13 0.10 0.07 0.06 0.07 0.06 0.13 0.11 0.06 0.05 0.04 0.06 0.09 0.07 0.07 0.08 0.08 0.07 0.06 0.06 0.05 0.04 0.05 0.04 0.03
0.00 0.00 0.00 0.00 0.00 0.00 0.00 0.00 0.00 0.00 0.00 0.00 0.00 0.00 0.00 0.01 0.02 0.03 0.09 0.19 0.25 0.21 0.28 0.23 0.15 0.10 0.08 0.05 0.06 0.07 0.10 0.13 0.09 0.07 0.07 0.08 0.09 0.08 0.08 0.08 0.09 0.07 0.06 0.06 0.06 0.04 0.05 0.05 0.04
0.00 0.00 0.00 0.00 0.00 0.00 0.00 0.00 0.00 0.00 0.00 0.00 0.00 0.00 0.00 0.01 0.04 0.06 0.10 0.19 0.31 0.28 0.28 0.24 0.16 0.13 0.10 0.08 0.09 0.08 0.10 0.09 0.08 0.08 0.08 0.07 0.07 0.07 0.07 0.07 0.07 0.06 0.05 0.05 0.05 0.04 0.04 0.03 0.03
0.00 0.00 0.00 0.00 0.00 0.00 0.00 0.00 0.00 0.00 0.00 0.00 0.00 0.00 0.00 0.01 0.03 0.05 0.08 0.11 0.18 0.19 0.21 0.24 0.19 0.17 0.15 0.13 0.13 0.12 0.12 0.10 0.08 0.09 0.09 0.08 0.08 0.08 0.07 0.07 0.06 0.05 0.03 0.04 0.06 0.04 0.03 0.03 0.03
0.00 0.00 0.00 0.00 0.00 0.00 0.00 0.00 0.00 0.00 0.00 0.00 0.00 0.00 0.00 0.01 0.02 0.03 0.04 0.06 0.08 0.10 0.15 0.19 0.18 0.14 0.15 0.15 0.16 0.15 0.15 0.12 0.10 0.09 0.10 0.10 0.09 0.07 0.08 0.08 0.06 0.04 0.04 0.05 0.04 0.04 0.03 0.03 0.04
0.00 0.00 0.00 0.00 0.00 0.00 0.00 0.00 0.00 0.00 0.00 0.00 0.00 0.00 0.00 0.00 0.01 0.03 0.03 0.04 0.06 0.08 0.11 0.14 0.16 0.14 0.17 0.19 0.18 0.18 0.16 0.11 0.09 0.11 0.11 0.10 0.09 0.07 0.08 0.08 0.05 0.04 0.06 0.06 0.05 0.03 0.01 0.02 0.02
0.00 0.00 0.00 0.00 0.00 0.00 0.00 0.00 0.00 0.00 0.00 0.00 0.00 0.00 0.00 0.01 0.02 0.03 0.04 0.04 0.05 0.08 0.11 0.13 0.18 0.24 0.29 0.30 0.27 0.22 0.16 0.11 0.10 0.11 0.11 0.09 0.07 0.06 0.08 0.06 0.05 0.05 0.05 0.04 0.02 0.01 0.01 0.01 0.01
0.00 0.00 0.00 0.00 0.00 0.00 0.00 0.00 0.00 0.00 0.00 0.00 0.00 0.00 0.00 0.01 0.02 0.02 0.03 0.04 0.07 0.08 0.10 0.12 0.16 0.21 0.27 0.29 0.25 0.21 0.16 0.13 0.14 0.13 0.11 0.08 0.07 0.06 0.06 0.06 0.05 0.04 0.04 0.03 0.01 0.01 0.01 0.01 0.01
0.00 0.00 0.00 0.00 0.00 0.00 0.00 0.00 0.00 0.00 0.00 0.00 0.00 0.00 0.00 0.01 0.01 0.01 0.02 0.02 0.04 0.06 0.07 0.10 0.12 0.14 0.16 0.18 0.19 0.16 0.14 0.11 0.10 0.10 0.09 0.07 0.05 0.05 0.06 0.06 0.04 0.03 0.02 0.02 0.01 0.00 0.00 0.00 0.01
0.00 0.00 0.00 0.00 0.00 0.00 0.00 0.00 0.00 0.00 0.00 0.00 0.00 0.00 0.00 0.00 0.00 0.01 0.01 0.02 0.03 0.04 0.08 0.09 0.10 0.13 0.13 0.14 0.14 0.12 0.11 0.09 0.08 0.09 0.09 0.08 0.06 0.05 0.06 0.05 0.04 0.03 0.02 0.02 0.01 0.00 0.00 0.01 0.01
0.00 0.00 0.00 0.00 0.00 0.00 0.00 0.00 0.00 0.00 0.00 0.00 0.00 0.00 0.00 0.00 0.00 0.00 0.01 0.02 0.03 0.05 0.08 0.10 0.11 0.15 0.14 0.13 0.12 0.13 0.12 0.11 0.10 0.11 0.09 0.09 0.08 0.06 0.05 0.05 0.03 0.03 0.02 0.01 0.01 0.01 0.00 0.01 0.01
0.00 0.00 0.00 0.00 0.00 0.00 0.00 0.00 0.00 0.00 0.00 0.00 0.00 0.00 0.00 0.00 0.00 0.00 0.01 0.01 0.03 0.06 0.07 0.10 0.11 0.15 0.15 0.12 0.11 0.13 0.15 0.15 0.12 0.09 0.08 0.07 0.07 0.06 0.05 0.04 0.03 0.02 0.02 0.01 0.01 0.01 0.01 0.01 0.01
0.00 0.00 0.00 0.00 0.00 0.00 0.00 0.00 0.00 0.00 0.00 0.00 0.00 0.00 0.00 0.00 0.00 0.00 0.00 0.01 0.03 0.03 0.05 0.09 0.10 0.11 0.10 0.11 0.12 0.12 0.17 0.19 0.17 0.12 0.09 0.07 0.05 0.05 0.05 0.04 0.03 0.02 0.02 0.01 0.01 0.01 0.01 0.01 0.01
0.00 0.00 0.00 0.00 0.00 0.00 0.00 0.00 0.00 0.00 0.00 0.00 0.00 0.00 0.00 0.00 0.00 0.00 0.00 0.00 0.02 0.02 0.03 0.06 0.08 0.09 0.10 0.09 0.11 0.12 0.16 0.16 0.14 0.13 0.11 0.08 0.05 0.05 0.05 0.04 0.04 0.03 0.02 0.02 0.01 0.01 0.00 0.01 0.01
0.00 0.00 0.00 0.00 0.00 0.00 0.00 0.00 0.00 0.00 0.00 0.00 0.00 0.00 0.00 0.00 0.00 0.00 0.00 0.00 0.01 0.01 0.02 0.04 0.06 0.07 0.08 0.08 0.09 0.10 0.13 0.12 0.12 0.10 0.09 0.08 0.06 0.04 0.04 0.05 0.04 0.03 0.02 0.01 0.01 0.01 0.00 0.01 0.01
0.00 0.00 0.00 0.00 0.00 0.00 0.00 0.00 0.00 0.00 0.00 0.00 0.00 0.00 0.00 0.01 0.01 0.00 0.00 0.00 0.00 0.01 0.01 0.03 0.05 0.05 0.06 0.05 0.06 0.07 0.09 0.10 0.11 0.09 0.07 0.07 0.06 0.04 0.03 0.03 0.04 0.03 0.03 0.02 0.01 0.01 0.01 0.01 0.01
0.00 0.00 0.00 0.00 0.00 0.00 0.00 0.00 0.00 0.00 0.00 0.00 0.00 0.00 0.00 0.01 0.01 0.01 0.00 0.00 0.00 0.00 0.01 0.02 0.03 0.04 0.04 0.05 0.05 0.06 0.08 0.09 0.10 0.09 0.07 0.07 0.07 0.05 0.04 0.03 0.02 0.02 0.03 0.02 0.02 0.01 0.01 0.01 0.01
0.00 0.00 0.00 0.00 0.00 0.00 0.00 0.00 0.00 0.00 0.00 0.00 0.00 0.00 0.00 0.01 0.01 0.01 0.00 0.00 0.00 0.00 0.01 0.01 0.02 0.03 0.03 0.04 0.06 0.07 0.09 0.11 0.11 0.10 0.09 0.07 0.07 0.05 0.05 0.04 0.03 0.02 0.02 0.03 0.02 0.02 0.01 0.01 0.02
MSLP
1009.78 1010.15 1010.57 1010.96 1011.25 1011.38 1011.34 1011.18 1010.94 1010.72 1010.55 1010.49 1010.53 1010.62 1010.72 1010.77 1010.75 1010.66 1010.54 1010.47 1010.53 1010.77 1011.21 1011.82 1012.54 1013.27 1013.90 1014.37 1014.65 1014.76 1014.75 1014.71 1014.72 1014.83 1015.06 1015.39 1015.75 1016.09 1016.35 1016.49 1016.52 1016.47 1016.41 1016.38 1016.41 1016.52 1016.69 1016.88 1017.06
1009.76 1010.18 1010.62 1010.99 1011.23 1011.29 1011.16 1010.90 1010.56 1010.24 1010.00 1009.88 1009.87 1009.94 1010.03 1010.10 1010.11 1010.07 1010.02 1010.04 1010.19 1010.54 1011.08 1011.80 1012.61 1013.42 1014.11 1014.63 1014.94 1015.06 1015.06 1015.01 1015.00 1015.09 1015.30 1015.59 1015.93 1016.24 1016.47 1016.60 1016.63 1016.61 1016.58 1016.58 1016.66 1016.81 1017.01 1017.22 1017.38
1009.83 1010.27 1010.70 1011.03 1011.19 1011.15 1010.92 1010.56 1010.14 1009.76 1009.47 1009.32 1009.30 1009.38 1009.49 1009.59 1009.64 1009.65 1009.67 1009.76 1009.99 1010.41 1011.02 1011.81 1012.69 1013.55 1014.29 1014.85 1015.20 1015.35 1015.36 1015.32 1015.31 1015.39 1015.57 1015.83 1016.13 1016.40 1016.61 1016.73 1016.77 1016.77 1016.78 1016.84 1016.96 1017.14 1017.36 1017.56 1017.70
1010.01 1010.44 1010.82 1011.06 1011.12 1010.97 1010.65 1010.20 1009.73 1009.31 1009.02 1008.88 1008.88 1008.99 1009.14 1009.28 1009.38 1009.44 1009.50 1009.64 1009.92 1010.39 1011.05 1011.86 1012.77 1013.66 1014.43 1015.02 1015.40 1015.58 1015.63 1015.62 1015.62 1015.70 1015.86 1016.10 1016.36 1016.61 1016.80 1016.92 1016.97 1017.01 1017.06 1017.15 1017.31 1017.51 1017.73 1017.91 1018.01
1010.28 1010.66 1010.95 1011.08 1011.02 1010.77 1010.35 1009.85 1009.35 1008.94 1008.67 1008.57 1008.62 1008.78 1008.98 1009.17 1009.31 1009.41 1009.52 1009.69 1009.99 1010.46 1011.13 1011.94 1012.84 1013.73 1014.50 1015.11 1015.52 1015.75 1015.84 1015.87 1015.91 1016.00 1016.17 1016.39 1016.63 1016.86 1017.04 1017.16 1017.24 1017.30 1017.39 1017.52 1017.69 1017.90 1018.09 1018.23 1018.30
1010.58 1010.89 1011.07 1011.07 1010.89 1010.52 1010.04 1009.50 1009.00 1008.62 1008.40 1008.37 1008.49 1008.71 1008.97 1009.20 1009.39 1009.53 1009.66 1009.84 1010.14 1010.60 1011.24 1012.02 1012.89 1013.74 1014.51 1015.12 1015.55 1015.82 1015.97 1016.05 1016.14 1016.27 1016.45 1016.67 1016.91 1017.13 1017.31 1017.44 1017.54 1017.63 1017.74 1017.89 1018.07 1018.26 1018.42 1018.51 1018.51
1010.88 1011.08 1011.13 1011.00 1010.69 1010.23 1009.69 1009.14 1008.66 1008.33 1008.18 1008.22 1008.41 1008.70 1009.01 1009.30 1009.52 1009.69 1009.84 1010.04 1010.33 1010.77 1011.36 1012.09 1012.90 1013.70 1014.43 1015.03 1015.48 1015.79 1015.99 1016.14 1016.29 1016.47 1016.69 1016.93 1017.17 1017.39 1017.57 1017.71 1017.82 1017.93 1018.06 1018.21 1018.38 1018.54 1018.65 1018.69 1018.64
1011.09 1011.17 1011.08 1010.82 1010.41 1009.88 1009.30 1008.75 1008.30 1008.03 1007.94 1008.05 1008.31 1008.65 1009.02 1009.35 1009.62 1009.83 1010.01 1010.22 1010.51 1010.92 1011.47 1012.13 1012.87 1013.61 1014.29 1014.87 1015.32 1015.67 1015.93 1016.14 1016.36 1016.60 1016.86 1017.13 1017.38 1017.61 1017.79 1017.93 1018.04 1018.15 1018.28 1018.43 1018.58 1018.70 1018.78 1018.76 1018.67
1011.16 1011.12 1010.91 1010.54 1010.04 1009.45 1008.86 1008.32 1007.91 1007.68 1007.66 1007.82 1008.12 1008.52 1008.93 1009.31 1009.63 1009.89 1010.11 1010.35 1010.65 1011.04 1011.55 1012.15 1012.81 1013.48 1014.10 1014.65 1015.10 1015.47 1015.78 1016.06 1016.35 1016.65 1016.96 1017.26 1017.53 1017.76 1017.94 1018.07 1018.18 1018.28 1018.40 1018.53 1018.66 1018.76 1018.79 1018.74 1018.62
1011.05 1010.92 1010.61 1010.15 1009.59 1008.97 1008.37 1007.85 1007.48 1007.29 1007.30 1007.50 1007.83 1008.25 1008.70 1009.13 1009.51 1009.83 1010.11 1010.40 1010.73 1011.13 1011.61 1012.16 1012.75 1013.35 1013.91 1014.41 1014.85 1015.24 1015.59 1015.93 1016.27 1016.63 1016.99 1017.32 1017.61 1017.84 1018.02 1018.14 1018.23 1018.32 1018.42 1018.53 1018.64 1018.72 1018.74 1018.68 1018.54
1010.80 1010.58 1010.20 1009.69 1009.10 1008.47 1007.88 1007.39 1007.03 1006.87 1006.89 1007.10 1007.44 1007.87 1008.35 1008.82 1009.26 1009.66 1010.03 1010.39 1010.77 1011.19 1011.67 1012.18 1012.72 1013.24 1013.74 1014.20 1014.61 1015.00 1015.38 1015.77 1016.17 1016.58 1016.98 1017.34 1017.65 1017.89 1018.05 1018.16 1018.23 1018.30 1018.38 1018.48 1018.58 1018.65 1018.67 1018.62 1018.50
1010.45 1010.18 1009.75 1009.22 1008.62 1008.01 1007.44 1006.97 1006.63 1006.46 1006.48 1006.66 1006.99 1007.42 1007.92 1008.43 1008.93 1009.41 1009.87 1010.32 1010.78 1011.25 1011.73 1012.23 1012.72 1013.19 1013.63 1014.03 1014.42 1014.80 1015.20 1015.61 1016.05 1016.51 1016.95 1017.34 1017.67 1017.91 1018.07 1018.17 1018.23 1018.28 1018.35 1018.43 1018.53 1018.61 1018.64 1018.62 1018.54
1010.10 1009.79 1009.35 1008.82 1008.24 1007.66 1007.11 1006.65 1006.31 1006.13 1006.12 1006.26 1006.55 1006.97 1007.46 1008.00 1008.57 1009.13 1009.69 1010.23 1010.76 1011.29 1011.80 1012.29 1012.75 1013.18 1013.57 1013.93 1014.29 1014.66 1015.05 1015.49 1015.96 1016.45 1016.92 1017.34 1017.69 1017.95 1018.12 1018.21 1018.26 1018.30 1018.35 1018.43 1018.53 1018.62 1018.70 1018.72 1018.68
1009.83 1009.51 1009.08 1008.57 1008.02 1007.47 1006.95 1006.50 1006.15 1005.94 1005.87 1005.96 1006.20 1006.57 1007.05 1007.61 1008.22 1008.85 1009.49 1010.12 1010.73 1011.31 1011.85 1012.35 1012.80 1013.20 1013.56 1013.89 1014.22 1014.57 1014.96 1015.40 1015.89 1016.40 1016.90 1017.35 1017.73 1018.01 1018.19 1018.28 1018.33 1018.37 1018.41 1018.49 1018.59 1018.71 1018.82 1018.89 1018.92
1009.72 1009.39 1008.97 1008.50 1007.99 1007.48 1006.98 1006.54 1006.17 1005.91 1005.78 1005.80 1005.97 1006.29 1006.74 1007.29 1007.92 1008.60 1009.30 1009.99 1010.66 1011.29 1011.86 1012.38 1012.83 1013.22 1013.55 1013.87 1014.18 1014.52 1014.90 1015.35 1015.84 1016.36 1016.88 1017.35 1017.76 1018.06 1018.26 1018.38 1018.44 1018.47 1018.52 1018.59 1018.70 1018.84 1018.98 1019.10 1019.19
1009.76 1009.44 1009.05 1008.61 1008.15 1007.68 1007.21 1006.76 1006.36 1006.05 1005.85 1005.79 1005.88 1006.14 1006.54 1007.08 1007.71 1008.40 1009.13 1009.85 1010.55 1011.21 1011.81 1012.34 1012.79 1013.19 1013.53 1013.84 1014.15 1014.49 1014.87 1015.30 1015.79 1016.31 1016.83 1017.32 1017.75 1018.08 1018.32 1018.46 1018.54 1018.59 1018.64 1018.71 1018.82 1018.97 1019.13 1019.29 1019.43
1009.92 1009.61 1009.26 1008.88 1008.47 1008.03 1007.58 1007.12 1006.69 1006.32 1006.04 1005.90 1005.92 1006.11 1006.46 1006.95 1007.56 1008.24 1008.96 1009.69 1010.39 1011.06 1011.66 1012.20 1012.68 1013.09 1013.45 1013.78 1014.11 1014.45 1014.83 1015.25 1015.73 1016.23 1016.75 1017.24 1017.68 1018.04 1018.31 1018.49 1018.60 1018.67 1018.72 1018.80 1018.91 1019.05 1019.22 1019.41 1019.58
1010.11 1009.84 1009.54 1009.22 1008.86 1008.47 1008.03 1007.57 1007.10 1006.67 1006.32 1006.10 1006.05 1006.17 1006.46 1006.90 1007.47 1008.12 1008.81 1009.50 1010.18 1010.83 1011.42 1011.97 1012.46 1012.90 1013.30 1013.67 1014.03 1014.39 1014.77 1015.19 1015.64 1016.12 1016.61 1017.09 1017.53 1017.91 1018.21 1018.43 1018.58 1018.68 1018.75 1018.83 1018.93 1019.07 1019.24 1019.43 1019.63
1010.25 1010.03 1009.81 1009.57 1009.28 1008.93 1008.51 1008.03 1007.52 1007.02 1006.61 1006.32 1006.19 1006.26 1006.49 1006.89 1007.41 1008.01 1008.65 1009.30 1009.93 1010.53 1011.10 1011.65 1012.15 1012.63 1013.08 1013.51 1013.92 1014.31 1014.70 1015.11 1015.53 1015.97 1016.43 1016.88 1017.31 1017.70 1018.03 1018.28 1018.48 1018.61 1018.71 1018.81 1018.90 1019.03 1019.19 1019.38 1019.59
1010.26 1010.13 1010.01 1009.86 1009.65 1009.34 1008.94 1008.44 1007.88 1007.33 1006.85 1006.49 1006.31 1006.32 1006.52 1006.88 1007.36 1007.91 1008.50 1009.08 1009.65 1010.20 1010.74 1011.26 1011.79 1012.31 1012.81 1013.30 1013.77 1014.21 1014.62 1015.02 1015.42 1015.82 1016.22 1016.63 1017.04 1017.42 1017.77 1018.07 1018.31 1018.49 1018.63 1018.74 1018.85 1018.97 1019.12 1019.29 1019.49
1010.13 1010.11 1010.11 1010.07 1009.94 1009.69 1009.29 1008.77 1008.16 1007.54 1006.99 1006.58 1006.35 1006.33 1006.50 1006.84 1007.29 1007.81 1008.34 1008.87 1009.37 1009.86 1010.36 1010.86 1011.39 1011.94 1012.51 1013.06 1013.60 1014.09 1014.54 1014.94 1015.31 1015.66 1016.02 1016.38 1016.75 1017.12 1017.48 1017.82 1018.10 1018.34 1018.53 1018.68 1018.80 1018.92 1019.05 1019.21 1019.39
1009.86 1009.99 1010.13 1010.21 1010.16 1009.95 1009.56 1009.00 1008.34 1007.65 1007.03 1006.56 1006.29 1006.25 1006.41 1006.75 1007.19 1007.69 1008.19 1008.67 1009.12 1009.55 1009.99 1010.47 1011.00 1011.57 1012.19 1012.81 1013.41 1013.96 1014.44 1014.85 1015.21 1015.53 1015.83 1016.14 1016.47 1016.83 1017.20 1017.56 1017.89 1018.19 1018.43 1018.63 1018.78 1018.91 1019.04 1019.18 1019.34
1009.55 1009.82 1010.10 1010.29 1010.33 1010.15 1009.75 1009.15 1008.42 1007.66 1006.97 1006.44 1006.14 1006.09 1006.26 1006.61 1007.06 1007.56 1008.05 1008.49 1008.89 1009.28 1009.67 1010.11 1010.62 1011.21 1011.86 1012.53 1013.19 1013.79 1014.32 1014.76 1015.11 1015.40 1015.67 1015.94 1016.23 1016.56 1016.93 1017.32 1017.70 1018.05 1018.35 1018.60 1018.79 1018.94 1019.07 1019.19 1019.33
1009.24 1009.66 1010.07 1010.36 1010.46 1010.31 1009.88 1009.23 1008.43 1007.59 1006.83 1006.26 1005.93 1005.86 1006.05 1006.42 1006.91 1007.42 1007.91 1008.34 1008.71 1009.05 1009.39 1009.79 1010.28 1010.86 1011.52 1012.23 1012.93 1013.59 1014.16 1014.63 1014.99 1015.27 1015.51 1015.75 1016.01 1016.33 1016.69 1017.09 1017.51 1017.91 1018.27 1018.57 1018.80 1018.98 1019.12 1019.23 1019.35
1009.00 1009.54 1010.05 1010.42 1010.56 1010.41 1009.96 1009.26 1008.39 1007.47 1006.65 1006.03 1005.67 1005.61 1005.81 1006.21 1006.73 1007.27 1007.78 1008.21 1008.56 1008.86 1009.16 1009.52 1009.96 1010.52 1011.18 1011.90 1012.63 1013.32 1013.93 1014.43 1014.81 1015.10 1015.34 1015.56 1015.80 1016.10 1016.46 1016.87 1017.31 1017.74 1018.15 1018.50 1018.77 1018.98 1019.14 1019.26 1019.37
1008.83 1009.45 1010.02 1010.44 1010.61 1010.45 1009.97 1009.22 1008.29 1007.32 1006.45 1005.79 1005.41 1005.34 1005.56 1005.99 1006.54 1007.12 1007.65 1008.09 1008.43 1008.71 1008.97 1009.28 1009.68 1010.20 1010.83 1011.54 1012.28 1012.99 1013.63 1014.16 1014.56 1014.87 1015.11 1015.33 1015.57 1015.86 1016.21 1016.62 1017.08 1017.54 1017.98 1018.36 1018.67 1018.91 1019.09 1019.22 1019.34
1008.70 1009.36 1009.96 1010.39 1010.55 1010.38 1009.88 1009.10 1008.14 1007.14 1006.24 1005.55 1005.17 1005.10 1005.33 1005.78 1006.35 1006.96 1007.51 1007.96 1008.31 1008.58 1008.82 1009.09 1009.44 1009.92 1010.50 1011.18 1011.90 1012.61 1013.26 1013.81 1014.24 1014.57 1014.83 1015.06 1015.30 1015.59 1015.94 1016.35 1016.81 1017.28 1017.73 1018.14 1018.48 1018.75 1018.95 1019.11 1019.23
1008.58 1009.22 1009.80 1010.21 1010.35 1010.16 1009.65 1008.87 1007.91 1006.91 1006.01 1005.33 1004.95 1004.88 1005.11 1005.57 1006.16 1006.78 1007.36 1007.83 1008.19 1008.46 1008.69 1008.93 1009.25 1009.67 1010.21 1010.84 1011.53 1012.21 1012.86 1013.41 1013.86 1014.22 1014.50 1014.75 1015.01 1015.30 1015.64 1016.05 1016.50 1016.97 1017.42 1017.84 1018.20 1018.49 1018.72 1018.90 1019.05
1008.40 1008.98 1009.50 1009.86 1009.96 1009.77 1009.26 1008.50 1007.58 1006.63 1005.77 1005.12 1004.75 1004.69 1004.92 1005.37 1005.96 1006.59 1007.18 1007.67 1008.05 1008.34 1008.58 1008.82 1009.11 1009.50 1009.98 1010.56 1011.20 1011.84 1012.46 1013.00 1013.46 1013.84 1014.15 1014.42 1014.70 1015.00 1015.34 1015.74 1016.18 1016.63 1017.08 1017.50 1017.86 1018.17 1018.42 1018.62 1018.80
1008.19 1008.66 1009.08 1009.36 1009.42 1009.20 1008.72 1008.01 1007.17 1006.29 1005.50 1004.91 1004.57 1004.52 1004.74 1005.18 1005.75 1006.36 1006.95 1007.46 1007.87 1008.20 1008.46 1008.72 1009.01 1009.38 1009.83 1010.36 1010.94 1011.53 1012.11 1012.63 1013.08 1013.47 1013.79 1014.09 1014.39 1014.70 1015.05 1015.44 1015.86 1016.30 1016.73 1017.13 1017.49 1017.81 1018.07 1018.30 1018.51
Thickness
5819 5824 5827 5820 5811 5808 5800 5807 5813 5811 5813 5820 5820 5815 5809 5804 5797 5789 5810 5820 5815 5809 5800 5789 5785 5783 5781 5780 5778 5776 5774 5772 5770 5769 5767 5766 5765 5764 5763 5762 5761 5760 5759 5758 5757 5756 5755 5754 5753
5827 5826 5822 5817 5808 5796 5797 5811 5812 5814 5819 5821 5819 5814 5808 5807 5809 5807 5810 5814 5812 5807 5799 5791 5783 5781 5779 5777 5776 5774 5772 5770 5768 5767 5766 5765 5763 5762 5761 5760 5759 5758 5757 5756 5755 5754 5753 5752 5751
5827 5825 5817 5815 5805 5800 5802 5815 5816 5819 5822 5819 5814 5814 5810 5806 5806 5807 5812 5812 5809 5803 5797 5789 5782 5779 5777 5775 5773 5772 5770 5768 5767 5765 5764 5763 5762 5761 5760 5758 5757 5756 5755 5754 5752 5751 5750 5749 5748
5825 5820 5817 5809 5802 5810 5814 5820 5822 5818 5818 5819 5815 5808 5809 5810 5810 5812 5812 5810 5805 5799 5794 5786 5779 5777 5774 5773 5771 5769 5768 5766 5765 5764 5763 5762 5760 5759 5758 5757 5755 5754 5753 5751 5750 5749 5748 5746 5745
5824 5817 5808 5804 5806 5815 5823 5827 5826 5818 5815 5816 5814 5805 5803 5809 5814 5813 5809 5806 5801 5797 5792 5783 5777 5774 5772 5770 5769 5767 5766 5764 5763 5762 5761 5760 5758 5757 5756 5754 5753 5751 5750 5748 5747 5746 5745 5744 5743
5817 5815 5803 5801 5806 5816 5825 5829 5826 5820 5817 5815 5812 5805 5802 5807 5808 5807 5807 5804 5801 5796 5791 5782 5774 5771 5769 5768 5766 5765 5763 5762 5761 5760 5759 5758 5756 5755 5753 5752 5750 5749 5747 5746 5744 5743 5742 5741 5741
5812 5809 5804 5805 5805 5811 5821 5830 5824 5819 5814 5815 5816 5805 5801 5803 5806 5805 5803 5801 5799 5795 5790 5781 5775 5770 5767 5765 5764 5762 5761 5760 5759 5758 5757 5755 5754 5753 5751 5749 5748 5746 5745 5743 5742 5741 5740 5739 5738
5818 5812 5805 5807 5804 5809 5824 5828 5828 5822 5817 5823 5819 5805 5800 5801 5805 5802 5798 5795 5794 5792 5788 5781 5777 5773 5768 5765 5761 5760 5759 5758 5757 5756 5754 5753 5752 5751 5749 5748 5745 5744 5742 5741 5740 5739 5738 5737 5736
5816 5803 5802 5808 5808 5814 5824 5822 5825 5829 5822 5817 5818 5814 5812 5807 5802 5795 5790 5787 5786 5785 5784 5781 5778 5773 5770 5767 5762 5759 5757 5756 5755 5754 5752 5752 5755 5753 5749 5747 5743 5742 5740 5739 5738 5737 5736 5735 5735
5809 5801 5808 5817 5821 5820 5821 5821 5824 5820 5813 5811 5811 5810 5808 5802 5795 5789 5784 5781 5779 5777 5778 5778 5776 5772 5770 5768 5763 5761 5760 5757 5757 5756 5754 5754 5754 5753 5751 5744 5742 5740 5739 5737 5736 5735 5735 5736 5738
5809 5806 5814 5819 5824 5823 5820 5822 5826 5817 5810 5814 5810 5805 5802 5796 5791 5786 5783 5781 5777 5775 5774 5774 5772 5769 5768 5766 5763 5762 5760 5757 5757 5755 5754 5753 5751 5751 5749 5746 5742 5740 5739 5739 5736 5737 5740 5740 5739
5807 5811 5814 5818 5824 5822 5820 5822 5821 5818 5819 5824 5820 5813 5802 5795 5790 5786 5782 5779 5776 5772 5770 5770 5768 5765 5764 5763 5762 5760 5759 5757 5757 5754 5752 5751 5751 5749 5748 5746 5745 5743 5742 5740 5740 5739 5739 5738 5737
5803 5809 5817 5821 5823 5823 5821 5819 5817 5819 5825 5823 5818 5809 5801 5796 5791 5788 5784 5778 5773 5768 5766 5765 5763 5760 5759 5758 5757 5758 5758 5757 5755 5752 5751 5750 5749 5748 5747 5745 5743 5744 5742 5740 5738 5738 5737 5736 5736
5810 5811 5815 5820 5821 5821 5815 5817 5815 5817 5822 5817 5811 5804 5801 5796 5791 5785 5779 5773 5769 5766 5763 5760 5757 5756 5754 5753 5753 5754 5755 5752 5753 5751 5749 5748 5748 5746 5746 5743 5742 5742 5742 5741 5739 5738 5737 5737 5736
5810 5804 5810 5817 5818 5819 5814 5807 5812 5820 5818 5810 5806 5801 5797 5793 5788 5783 5778 5772 5768 5764 5760 5756 5753 5751 5750 5749 5750 5750 5751 5751 5750 5749 5747 5746 5746 5744 5744 5744 5742 5742 5740 5738 5737 5736 5737 5736 5736
5804 5798 5796 5811 5814 5815 5805 5799 5815 5819 5812 5805 5802 5798 5792 5787 5785 5781 5777 5771 5766 5762 5757 5754 5751 5748 5747 5746 5745 5747 5748 5748 5747 5746 5745 5744 5744 5743 5742 5743 5742 5740 5740 5739 5738 5738 5737 5736 5736
5793 5789 5794 5802 5812 5811 5804 5801 5813 5815 5809 5802 5799 5795 5789 5783 5780 5778 5775 5769 5764 5760 5755 5750 5748 5746 5744 5743 5742 5743 5743 5744 5744 5744 5744 5742 5741 5741 5741 5741 5741 5739 5740 5739 5739 5738 5737 5735 5733
5786 5791 5791 5794 5806 5804 5801 5804 5811 5811 5806 5801 5798 5793 5787 5781 5778 5776 5772 5767 5762 5758 5753 5748 5744 5743 5741 5741 5740 5740 5740 5741 5742 5742 5741 5741 5740 5740 5740 5740 5738 5739 5739 5738 5737 5734 5733 5734 5732
5790 5786 5785 5794 5805 5799 5799 5802 5808 5808 5802 5798 5795 5791 5785 5781 5779 5775 5769 5765 5760 5754 5750 5745 5742 5741 5740 5738 5737 5736 5736 5738 5739 5740 5739 5739 5739 5739 5739 5741 5737 5738 5739 5737 5736 5734 5732 5732 5732
5782 5779 5784 5793 5800 5796 5796 5800 5810 5806 5800 5797 5793 5788 5783 5779 5775 5770 5766 5761 5756 5751 5747 5744 5742 5740 5738 5738 5738 5738 5737 5737 5738 5738 5737 5738 5738 5738 5739 5738 5738 5737 5736 5734 5734 5732 5733 5734 5732
5777 5779 5783 5783 5792 5798 5792 5795 5803 5802 5799 5796 5793 5790 5786 5780 5774 5769 5764 5760 5755 5750 5747 5744 5741 5739 5737 5736 5735 5735 5734 5734 5735 5735 5736 5737 5737 5737 5738 5737 5738 5737 5737 5736 5733 5732 5730 5731 5732
5771 5787 5784 5781 5779 5786 5786 5776 5797 5799 5793 5792 5790 5788 5785 5782 5777 5771 5765 5760 5756 5752 5748 5743 5740 5738 5737 5736 5735 5734 5733 5733 5735 5736 5737 5736 5736 5737 5736 5736 5736 5736 5737 5735 5734 5734 5733 5730 5731
5780 5787 5783 5782 5779 5779 5786 5776 5792 5798 5789 5792 5791 5789 5787 5783 5778 5771 5766 5761 5757 5752 5747 5743 5739 5737 5737 5737 5736 5734 5734 5735 5736 5736 5735 5735 5735 5736 5735 5735 5734 5734 5735 5735 5734 5732 5732 5732 5732
5785 5779 5778 5779 5780 5763 5778 5771 5779 5797 5792 5794 5793 5790 5786 5783 5778 5772 5767 5761 5755 5751 5747 5742 5738 5737 5737 5737 5736 5735 5734 5734 5734 5734 5734 5734 5735 5735 5734 5734 5733 5733 5734 5733 5732 5731 5731 5731 5731
5777 5765 5755 5753 5757 5763 5781 5770 5781 5799 5800 5797 5794 5790 5788 5784 5778 5771 5765 5760 5755 5751 5747 5743 5738 5736 5737 5737 5736 5736 5735 5734 5733 5734 5734 5735 5735 5735 5734 5735 5733 5733 5733 5732 5731 5730 5731 5730 5728
5773 5771 5752 5743 5751 5767 5774 5768 5789 5801 5801 5799 5797 5793 5788 5784 5779 5772 5767 5762 5757 5753 5748 5744 5739 5737 5736 5736 5735 5736 5736 5735 5736 5736 5737 5736 5737 5738 5736 5734 5732 5732 5731 5731 5730 5731 5730 5729 5727
5770 5771 5785 5770 5766 5758 5770 5778 5792 5799 5796 5794 5792 5790 5786 5783 5779 5774 5769 5764 5760 5755 5750 5746 5741 5738 5737 5736 5735 5734 5735 5736 5737 5737 5737 5738 5737 5738 5735 5734 5732 5732 5731 5730 5729 5730 5728 5727 5727
5782 5782 5770 5761 5744 5743 5761 5769 5777 5786 5789 5790 5788 5787 5786 5783 5779 5775 5770 5766 5762 5758 5753 5748 5744 5740 5739 5738 5737 5737 5737 5737 5737 5737 5736 5737 5736 5736 5734 5734 5733 5732 5730 5729 5728 5728 5727 5725 5724
5765 5766 5766 5767 5765 5748 5746 5765 5794 5790 5790 5790 5789 5789 5787 5784 5780 5775 5770 5767 5763 5758 5754 5748 5745 5742 5740 5739 5738 5738 5738 5738 5738 5736 5737 5736 5735 5734 5733 5733 5732 5731 5730 5728 5726 5727 5725 5723 5723
5774 5771 5766 5751 5751 5756 5753 5767 5800 5796 5796 5793 5791 5789 5788 5784 5780 5776 5771 5766 5762 5758 5754 5750 5747 5744 5742 5741 5739 5739 5738 5738 5737 5737 5737 5736 5734 5734 5733 5733 5732 5730 5729 5727 5725 5724 5724 5722 5720